Terug naar catalogus

GJZ 03

ActiefMilitairLEO
NORAD 62292·PAYLOAD·🇨🇳 China

Gelanceerd Dec 12, 2024 vanaf Jiuquan Satellite Launch Center

Loading…

Volgende Passages (komende 24 uur)

TLE

VersSource: Space-Track

Epoch: Sep 14, 2026, 15:00 UTC

1 62292U 24238C   26257.62560807 -.00000052  00000-0  69772-4 0  9999
2 62292  59.9158   0.2972 0025636  60.0306 300.3242 13.75216195 88197

Volg GJZ 03 in realtime met AllMySat

Download on the App Store